TimeCDT,TemperatureF,Dew PointF,Humidity,Sea Level PressureIn,VisibilityMPH,Wind Direction,Wind SpeedMPH,Gust SpeedMPH,PrecipitationIn,Events,Conditions,WindDirDegrees,DateUTC
12:53 AM,75.9,72.0,87,29.93,10.0,SE,4.6,-,N/A,,Clear,140,2013-10-04 05:53:00
1:53 AM,75.9,73.0,91,29.92,10.0,SSE,3.5,-,0.00,,Partly Cloudy,150,2013-10-04 06:53:00
2:37 AM,75.2,73.4,94,29.91,10.0,Calm,Calm,-,N/A,,Mostly Cloudy,0,2013-10-04 07:37:00
2:53 AM,75.9,73.0,91,29.91,10.0,Calm,Calm,-,N/A,,Mostly Cloudy,0,2013-10-04 07:53:00
3:14 AM,75.2,73.4,94,29.90,10.0,Calm,Calm,-,N/A,,Overcast,0,2013-10-04 08:14:00
3:53 AM,75.9,73.9,94,29.90,9.0,Calm,Calm,-,N/A,,Overcast,0,2013-10-04 08:53:00
4:53 AM,77.0,75.0,94,29.90,9.0,North,3.5,-,N/A,,Overcast,10,2013-10-04 09:53:00
5:34 AM,77.0,75.2,94,29.90,9.0,North,3.5,-,N/A,,Overcast,350,2013-10-04 10:34:00
5:53 AM,77.0,75.0,94,-9999,9.0,North,3.5,-,N/A,,Overcast,10,2013-10-04 10:53:00
6:11 AM,75.2,73.4,94,-9999,8.0,NNE,4.6,-,N/A,,Scattered Clouds,20,2013-10-04 11:11:00
6:53 AM,75.9,73.9,94,-9999,8.0,Calm,Calm,-,N/A,,Partly Cloudy,0,2013-10-04 11:53:00
7:53 AM,77.0,75.0,94,29.92,4.0,Calm,Calm,-,N/A,,Clear,0,2013-10-04 12:53:00
8:32 AM,78.8,75.2,89,29.92,4.0,Calm,Calm,-,N/A,,Partly Cloudy,0,2013-10-04 13:32:00
8:53 AM,78.1,75.9,93,29.92,3.0,North,4.6,-,N/A,,Partly Cloudy,350,2013-10-04 13:53:00
9:03 AM,78.8,75.2,89,29.94,0.5,NNE,3.5,-,N/A,,Mostly Cloudy,20,2013-10-04 14:03:00
9:24 AM,78.8,75.2,89,29.94,2.0,North,3.5,-,N/A,,Mostly Cloudy,10,2013-10-04 14:24:00
9:26 AM,78.8,77.0,94,29.94,2.0,North,3.5,-,N/A,,Mostly Cloudy,360,2013-10-04 14:26:00
9:45 AM,80.6,77.0,89,29.94,5.0,NNW,4.6,-,N/A,,Scattered Clouds,340,2013-10-04 14:45:00
9:53 AM,82.0,77.0,85,29.94,6.0,Calm,Calm,-,N/A,,Haze,0,2013-10-04 14:53:00
10:50 AM,84.2,77.0,79,29.96,10.0,NE,3.5,-,N/A,,Mostly Cloudy,40,2013-10-04 15:50:00
10:53 AM,84.9,77.0,77,29.96,10.0,Calm,Calm,-,N/A,,Mostly Cloudy,0,2013-10-04 15:53:00
11:10 AM,84.2,75.2,74,29.95,10.0,Calm,Calm,-,N/A,,Overcast,0,2013-10-04 16:10:00
11:42 AM,86.0,75.2,70,29.95,10.0,South,5.8,-,0.00,,Mostly Cloudy,170,2013-10-04 16:42:00
11:53 AM,87.1,75.9,69,29.95,10.0,SSE,9.2,-,0.00,,Mostly Cloudy,160,2013-10-04 16:53:00
12:27 PM,87.8,75.2,66,29.94,10.0,SSE,13.8,-,N/A,,Mostly Cloudy,150,2013-10-04 17:27:00
12:53 PM,87.1,75.0,67,29.94,10.0,South,16.1,-,N/A,,Mostly Cloudy,170,2013-10-04 17:53:00
1:08 PM,80.6,75.2,84,29.94,1.8,SSE,12.7,-,0.08,Rain,Heavy Rain,160,2013-10-04 18:08:00
1:14 PM,80.6,77.0,89,29.94,3.0,South,10.4,-,0.10,Rain,Rain,170,2013-10-04 18:14:00
1:53 PM,86.0,75.9,72,29.94,10.0,SSE,15.0,-,0.10,,Mostly Cloudy,150,2013-10-04 18:53:00
2:49 PM,84.2,73.4,70,29.92,10.0,SSE,11.5,-,N/A,,Mostly Cloudy,160,2013-10-04 19:49:00
2:53 PM,84.9,73.9,69,29.92,10.0,SSE,13.8,-,N/A,,Mostly Cloudy,150,2013-10-04 19:53:00
3:53 PM,86.0,73.9,67,-9999,10.0,SSE,12.7,-,N/A,,Scattered Clouds,160,2013-10-04 20:53:00
4:00 PM,87.8,73.4,62,29.91,10.0,SE,15.0,-,N/A,,Mostly Cloudy,130,2013-10-04 21:00:00
4:53 PM,87.1,73.0,63,29.91,10.0,SE,15.0,-,N/A,,Mostly Cloudy,130,2013-10-04 21:53:00
5:53 PM,84.9,73.0,67,29.91,10.0,SE,13.8,-,N/A,,Partly Cloudy,130,2013-10-04 22:53:00
6:53 PM,82.0,73.9,76,29.92,10.0,ESE,11.5,-,N/A,,Scattered Clouds,120,2013-10-04 23:53:00
7:53 PM,80.1,75.0,85,29.93,10.0,ESE,10.4,-,0.00,,Mostly Cloudy,120,2013-10-05 00:53:00
8:53 PM,80.1,75.0,85,29.93,10.0,ESE,10.4,-,N/A,,Mostly Cloudy,120,2013-10-05 01:53:00
9:53 PM,80.1,75.0,85,29.94,10.0,ESE,10.4,-,N/A,,Clear,120,2013-10-05 02:53:00
10:53 PM,79.0,75.0,88,29.94,10.0,SE,6.9,-,N/A,,Scattered Clouds,130,2013-10-05 03:53:00
11:00 PM,80.6,75.2,84,29.94,10.0,SE,8.1,-,N/A,,Mostly Cloudy,130,2013-10-05 04:00:00
11:53 PM,80.1,75.0,85,29.93,10.0,ESE,9.2,-,N/A,,Mostly Cloudy,120,2013-10-05 04:53:00